Weather History for KAJG - March, 2013

Change the Weather History Date:

Friday, March 29, 2013

  Actual Average (KLWV) Record (KLWV)
Temperature  
Mean Temperature 46 °F 50 °F  
Max Temperature 55 °F 60 °F 81 °F (1998)
Min Temperature 37 °F 39 °F 25 °F (2015)
Degree Days  
Heating Degree Days 19 16  
Month to date heating degree days 590  
Since 1 July heating degree days 4265  
Cooling Degree Days 0 0  
Month to date cooling degree days 0  
Year to date cooling degree days 0  
Moisture  
Dew Point 38 °F    
Average Humidity 73    
Maximum Humidity 93    
Minimum Humidity 54    
Precipitation  
Precipitation 0.00 in 0.15 in 1.18 in (1975)
Month to date precipitation 3.12  
Year to date precipitation 7.51  
Sea Level Pressure  
Sea Level Pressure 30.26 in    
Wind  
Wind Speed 1 mph (East)    
Max Wind Speed 8 mph    
Max Gust Speed -    
Visibility 9 miles    
Events Fog    
T = Trace of Precipitation, MM = Missing Value Source: NWS Daily Summary

Daily Weather History Graph

Daily Weather History Graph

Search for Another Location

Airport or City:

Trip Planner

Search our weather history database for the weather conditions in past years. The results will help you decide how hot, cold, wet, or windy it might be!

Date:

Astronomy

Mar. 29, 2013 Rise Set
Actual Time 6:39 AM CDT 7:11 PM CDT
Civil Twilight 6:13 AM CDT 7:38 PM CDT
Nautical Twilight 5:41 AM CDT 8:09 PM CDT
Astronomical Twilight 5:09 AM CDT 8:42 PM CDT
Moon 10:09 PM CDT (3/29) 7:50 AM CDT (3/29)
Length of Visible Light 13h 25m
Length of Day
12h 31m
Waning Gibbous, 93% of the Moon is Illuminated
Mar 29
Waning Gibbous
Apr 2
Last Quarter
Apr 10
New
Apr 18
First Quarter
Apr 25
Full

Hourly Weather History & Observations

Time (CDT) Temp. Windchill Dew Point Humidity Pressure Visibility Wind Dir Wind Speed Gust Speed Precip Events Conditions
12:15 AM 41.0 °F - 32.0 °F 70% 30.30 in 10.0 mi Calm Calm - N/A   Clear
12:35 AM 37.4 °F - 32.0 °F 81% 30.30 in 10.0 mi Calm Calm - N/A   Clear
12:55 AM 37.4 °F - 32.0 °F 81% 30.30 in 10.0 mi Calm Calm - N/A   Clear
1:15 AM 37.4 °F - 32.0 °F 81% 30.30 in 10.0 mi Calm Calm - N/A   Clear
1:55 AM 37.4 °F - 32.0 °F 81% 30.30 in 10.0 mi Calm Calm - N/A   Scattered Clouds
2:15 AM 39.2 °F - 32.0 °F 75% 30.29 in 10.0 mi Calm Calm - N/A   Mostly Cloudy
2:35 AM 39.2 °F - 33.8 °F 81% 30.28 in 10.0 mi Calm Calm - N/A   Overcast
2:55 AM 39.2 °F - 33.8 °F 81% 30.28 in 10.0 mi Calm Calm - N/A   Overcast
3:35 AM 39.2 °F - 33.8 °F 81% 30.28 in 10.0 mi Calm Calm - N/A   Overcast
3:55 AM 37.4 °F 34.9 °F 33.8 °F 87% 30.28 in 10.0 mi ENE 3.5 mph - N/A   Overcast
4:15 AM 39.2 °F - 33.8 °F 81% 30.28 in 10.0 mi Calm Calm - N/A   Overcast
4:35 AM 41.0 °F - 33.8 °F 76% 30.28 in 10.0 mi Calm Calm - N/A   Overcast
4:55 AM 41.0 °F 39.0 °F 35.6 °F 81% 30.28 in 10.0 mi ESE 3.5 mph - N/A   Overcast
5:15 AM 39.2 °F 37.0 °F 35.6 °F 87% 30.28 in 10.0 mi East 3.5 mph - N/A   Overcast
5:35 AM 41.0 °F 38.0 °F 35.6 °F 81% 30.28 in 10.0 mi East 4.6 mph - N/A   Overcast
5:55 AM 41.0 °F 36.4 °F 35.6 °F 81% 30.28 in 10.0 mi East 6.9 mph - N/A   Overcast
6:15 AM 41.0 °F 35.8 °F 33.8 °F 76% 30.27 in 10.0 mi East 8.1 mph - N/A   Overcast
6:35 AM 41.0 °F 38.0 °F 33.8 °F 76% 30.27 in 10.0 mi East 4.6 mph - N/A   Mostly Cloudy
6:55 AM 39.2 °F - 35.6 °F 87% 30.28 in 10.0 mi Calm Calm - N/A   Mostly Cloudy
7:15 AM 41.0 °F - 35.6 °F 81% 30.29 in 10.0 mi Calm Calm - N/A   Mostly Cloudy
7:35 AM 41.0 °F - 35.6 °F 81% 30.29 in 10.0 mi Calm Calm - N/A   Overcast
7:55 AM 42.8 °F 39.3 °F 35.6 °F 76% 30.29 in 10.0 mi East 5.8 mph - N/A   Mostly Cloudy
8:15 AM 42.8 °F 39.3 °F 33.8 °F 70% 30.29 in 10.0 mi ENE 5.8 mph - N/A   Scattered Clouds
8:35 AM 44.6 °F 41.4 °F 33.8 °F 66% 30.30 in 10.0 mi ENE 5.8 mph - N/A   Scattered Clouds
8:55 AM 46.4 °F 42.9 °F 33.8 °F 62% 30.29 in 10.0 mi East 6.9 mph - N/A   Mostly Cloudy
9:15 AM 46.4 °F 43.5 °F 33.8 °F 62% 30.29 in 10.0 mi East 5.8 mph - N/A   Overcast
9:35 AM 46.4 °F 43.5 °F 33.8 °F 62% 30.29 in 10.0 mi East 5.8 mph - N/A   Overcast
9:55 AM 46.4 °F 43.5 °F 33.8 °F 62% 30.29 in 10.0 mi East 5.8 mph - N/A   Overcast
10:15 AM 50.0 °F - 33.8 °F 54% 30.29 in 10.0 mi East 5.8 mph - N/A   Overcast
10:35 AM 50.0 °F - 35.6 °F 58% 30.29 in 10.0 mi Calm Calm - N/A   Mostly Cloudy
10:55 AM 51.8 °F - 35.6 °F 54% 30.29 in 10.0 mi Calm Calm - N/A   Clear
11:15 AM 53.6 °F - 37.4 °F 54% 30.28 in 10.0 mi Calm Calm - N/A   Scattered Clouds
11:55 AM 55.4 °F - 41.0 °F 58% 30.27 in 10.0 mi Calm Calm - N/A   Scattered Clouds
12:15 PM 55.4 °F - 41.0 °F 58% 30.27 in 10.0 mi Calm Calm - N/A   Mostly Cloudy
12:35 PM 55.4 °F - 41.0 °F 58% 30.26 in 10.0 mi Calm Calm - N/A   Overcast
12:55 PM 55.4 °F - 41.0 °F 58% 30.26 in 10.0 mi Calm Calm - N/A   Overcast
1:15 PM 55.4 °F - 41.0 °F 58% 30.25 in 10.0 mi Calm Calm - N/A   Overcast
1:35 PM 53.6 °F - 42.8 °F 67% 30.25 in 10.0 mi Calm Calm - N/A   Overcast
1:55 PM 55.4 °F - 44.6 °F 67% 30.24 in 10.0 mi SSW 5.8 mph - N/A   Overcast
2:15 PM 55.4 °F - 44.6 °F 67% 30.24 in 10.0 mi South 6.9 mph - N/A   Overcast
2:35 PM 55.4 °F - 42.8 °F 63% 30.23 in 10.0 mi Calm Calm - N/A   Overcast
2:55 PM 55.4 °F - 44.6 °F 67% 30.22 in 10.0 mi Calm Calm - N/A   Overcast
3:15 PM 55.4 °F - 42.8 °F 63% 30.22 in 10.0 mi Calm Calm - N/A   Overcast
3:35 PM 55.4 °F - 42.8 °F 63% 30.22 in 10.0 mi Calm Calm - N/A   Overcast
3:55 PM 55.4 °F - 42.8 °F 63% 30.21 in 10.0 mi Calm Calm - N/A   Overcast
4:15 PM 55.4 °F - 42.8 °F 63% 30.21 in 10.0 mi Calm Calm - N/A   Overcast
4:35 PM 55.4 °F - 42.8 °F 63% 30.21 in 10.0 mi Calm Calm - N/A   Overcast
4:55 PM 55.4 °F - 42.8 °F 63% 30.21 in 10.0 mi Calm Calm - N/A   Mostly Cloudy
5:15 PM 55.4 °F - 42.8 °F 63% 30.21 in 10.0 mi Calm Calm - N/A   Scattered Clouds
5:35 PM 55.4 °F - 42.8 °F 63% 30.21 in 10.0 mi Calm Calm - N/A   Scattered Clouds
5:55 PM 55.4 °F - 42.8 °F 63% 30.21 in 10.0 mi Calm Calm - N/A   Clear
6:15 PM 55.4 °F - 42.8 °F 63% 30.21 in 10.0 mi Calm Calm - N/A   Clear
6:35 PM 53.6 °F - 42.8 °F 67% 30.21 in 10.0 mi Calm Calm - N/A   Clear
6:55 PM 53.6 °F - 42.8 °F 67% 30.21 in 10.0 mi Calm Calm - N/A   Clear
7:15 PM 51.8 °F - 42.8 °F 71% 30.21 in 10.0 mi Calm Calm - N/A   Clear
7:35 PM 50.0 °F - 42.8 °F 76% 30.21 in 10.0 mi Calm Calm - N/A   Mostly Cloudy
7:55 PM 48.2 °F - 42.8 °F 82% 30.22 in 10.0 mi Calm Calm - N/A   Scattered Clouds
8:15 PM 48.2 °F - 42.8 °F 82% 30.22 in 10.0 mi Calm Calm - N/A   Clear
8:35 PM 46.4 °F - 42.8 °F 87% 30.22 in 10.0 mi Calm Calm - N/A   Clear
8:55 PM 46.4 °F - 42.8 °F 87% 30.23 in 10.0 mi Calm Calm - N/A   Clear
9:15 PM 46.4 °F - 42.8 °F 87% 30.23 in 10.0 mi Calm Calm - N/A   Clear
9:35 PM 46.4 °F - 42.8 °F 87% 30.24 in 10.0 mi Calm Calm - N/A   Clear
10:15 PM 44.6 °F - 42.8 °F 93% 30.24 in 5.0 mi Calm Calm - N/A   Clear
10:35 PM 42.8 °F - 39.2 °F 87% 30.24 in 5.0 mi Calm Calm - N/A   Clear
10:55 PM 41.0 °F - 39.2 °F 93% 30.24 in 2.0 mi Calm Calm - N/A   Mist
11:15 PM 41.0 °F - 39.2 °F 93% 30.24 in 1.5 mi Calm Calm - N/A   Mist
11:35 PM 41.0 °F - 39.2 °F 93% 30.23 in 0.5 mi Calm Calm - N/A Fog Fog
11:55 PM 41.0 °F - 39.2 °F 93% 30.23 in 2.0 mi Calm Calm - N/A   Mist